TimeEDT,TemperatureF,Dew PointF,Humidity,Sea Level PressureIn,VisibilityMPH,Wind Direction,Wind SpeedMPH,Gust SpeedMPH,PrecipitationIn,Events,Conditions,WindDirDegrees,DateUTC
12:15 AM,54.5,38.7,55,29.85,10.0,South,15.0,28.8,N/A,,Overcast,190,2012-10-09 04:15:00
12:35 AM,54.5,39.7,57,29.84,10.0,SSW,15.0,26.5,N/A,Rain,Light Rain,200,2012-10-09 04:35:00
12:55 AM,53.6,40.5,61,29.84,10.0,South,16.1,23.0,N/A,,Light Drizzle,190,2012-10-09 04:55:00
1:15 AM,54.5,39.6,57,29.83,10.0,SSW,17.3,27.6,N/A,,Overcast,200,2012-10-09 05:15:00
1:35 AM,54.7,39.6,57,29.82,10.0,South,16.1,24.2,N/A,,Mostly Cloudy,190,2012-10-09 05:35:00
1:55 AM,54.5,39.2,56,29.82,10.0,South,13.8,24.2,N/A,,Scattered Clouds,190,2012-10-09 05:55:00
2:15 AM,54.7,39.7,57,29.81,10.0,SSW,15.0,25.3,N/A,,Scattered Clouds,200,2012-10-09 06:15:00
2:55 AM,54.7,39.4,56,29.80,10.0,South,19.6,28.8,N/A,,Overcast,190,2012-10-09 06:55:00
3:15 AM,54.5,40.1,58,29.80,10.0,South,13.8,25.3,N/A,,Overcast,190,2012-10-09 07:15:00
3:55 AM,55.6,41.5,59,29.78,10.0,SSW,18.4,27.6,N/A,,Overcast,200,2012-10-09 07:55:00
4:15 AM,55.6,41.2,58,29.78,10.0,SSW,18.4,33.4,N/A,,Overcast,200,2012-10-09 08:15:00
4:35 AM,55.6,41.0,58,29.78,10.0,SSW,19.6,33.4,N/A,,Overcast,200,2012-10-09 08:35:00
5:15 AM,55.8,41.9,60,29.78,10.0,SSW,17.3,34.5,N/A,,Overcast,210,2012-10-09 09:15:00
5:35 AM,55.2,42.6,63,29.78,10.0,SSW,19.6,35.7,N/A,Rain,Rain,210,2012-10-09 09:35:00
5:55 AM,54.1,45.0,71,29.78,10.0,SSW,13.8,26.5,N/A,,Drizzle,210,2012-10-09 09:55:00
6:15 AM,53.6,45.0,73,29.78,10.0,SSW,16.1,25.3,N/A,,Drizzle,210,2012-10-09 10:15:00
6:35 AM,53.6,43.7,69,29.78,10.0,SW,19.6,26.5,N/A,,Drizzle,220,2012-10-09 10:35:00
6:54 AM,53.2,43.2,69,29.78,10.0,SW,19.6,28.8,N/A,,Drizzle,220,2012-10-09 10:54:00
7:15 AM,51.8,43.7,74,29.79,10.0,SW,17.3,31.1,N/A,,Drizzle,220,2012-10-09 11:15:00
7:55 AM,50.7,44.6,80,29.79,10.0,SW,15.0,28.8,N/A,Rain,Light Rain,220,2012-10-09 11:55:00
8:15 AM,50.5,45.0,81,29.79,7.0,SW,16.1,28.8,N/A,Rain,Light Rain,220,2012-10-09 12:15:00
8:35 AM,50.0,45.0,83,29.80,7.0,SSW,15.0,25.3,N/A,Rain,Light Rain,210,2012-10-09 12:35:00
8:55 AM,50.4,46.4,86,29.80,7.0,SSW,13.8,19.6,N/A,Rain,Light Rain,200,2012-10-09 12:55:00
9:15 AM,50.2,46.4,87,29.80,7.0,SSW,11.5,18.4,N/A,Rain,Light Rain,210,2012-10-09 13:15:00
9:35 AM,50.2,46.4,87,29.79,10.0,SSW,16.1,21.9,N/A,Rain,Light Rain,210,2012-10-09 13:35:00
9:55 AM,50.5,46.4,86,29.80,10.0,SW,12.7,19.6,N/A,Rain,Rain,220,2012-10-09 13:55:00
10:15 AM,50.5,46.4,86,29.79,10.0,SSW,10.4,17.3,N/A,,Drizzle,210,2012-10-09 14:15:00
10:35 AM,50.9,46.6,85,29.80,7.0,SW,12.7,20.7,N/A,Rain,Rain,220,2012-10-09 14:35:00
10:55 AM,50.9,46.9,86,29.80,7.0,SW,12.7,23.0,N/A,Rain,Rain,220,2012-10-09 14:55:00
11:15 AM,50.9,46.9,86,29.80,7.0,SW,12.7,23.0,N/A,,Drizzle,220,2012-10-09 15:15:00
11:35 AM,50.9,46.9,86,29.80,7.0,SW,13.8,25.3,N/A,Rain,Light Rain,220,2012-10-09 15:35:00
11:55 AM,50.9,46.8,86,29.80,7.0,SW,11.5,24.2,N/A,Rain,Light Rain,230,2012-10-09 15:55:00
12:15 PM,50.9,46.6,85,29.80,10.0,SW,15.0,18.4,N/A,Rain,Light Rain,230,2012-10-09 16:15:00
12:35 PM,50.5,46.4,86,29.79,7.0,SSW,10.4,-,N/A,Rain,Light Rain,210,2012-10-09 16:35:00
12:55 PM,50.9,46.6,85,29.78,10.0,SW,6.9,-,N/A,Rain,Rain,220,2012-10-09 16:55:00
1:14 PM,50.5,46.6,86,29.78,7.0,SSW,6.9,-,N/A,Rain,Light Rain,210,2012-10-09 17:14:00
1:35 PM,50.5,46.6,86,29.77,7.0,SW,5.8,-,N/A,Rain,Light Rain,220,2012-10-09 17:35:00
1:55 PM,50.5,46.9,87,29.75,10.0,SSW,5.8,-,N/A,Rain,Light Rain,200,2012-10-09 17:55:00
2:15 PM,50.0,45.7,85,29.75,10.0,SSW,5.8,-,N/A,Rain,Light Rain,210,2012-10-09 18:15:00
2:35 PM,49.5,45.5,86,29.74,7.0,South,3.5,-,N/A,Rain,Light Rain,180,2012-10-09 18:35:00
2:55 PM,49.5,45.9,87,29.73,10.0,South,3.5,-,N/A,Rain,Light Rain,190,2012-10-09 18:55:00
3:15 PM,49.5,46.4,89,29.72,10.0,Calm,Calm,-,N/A,Rain,Light Rain,0,2012-10-09 19:15:00
3:35 PM,50.4,46.9,88,29.70,10.0,SSW,5.8,-,N/A,Rain,Rain,200,2012-10-09 19:35:00
3:55 PM,51.4,48.2,89,29.69,10.0,South,5.8,-,N/A,,Overcast,180,2012-10-09 19:55:00
4:15 PM,51.8,48.0,87,29.68,10.0,South,5.8,-,N/A,,Overcast,190,2012-10-09 20:15:00
4:34 PM,51.3,47.5,87,29.68,7.0,South,5.8,-,N/A,Rain,Light Rain,190,2012-10-09 20:34:00
4:55 PM,52.0,47.7,85,29.67,7.0,SSW,16.1,19.6,N/A,Rain,Rain,200,2012-10-09 20:55:00
5:15 PM,52.0,47.3,84,29.67,7.0,SW,16.1,26.5,N/A,,Drizzle,220,2012-10-09 21:15:00
5:35 PM,51.8,47.3,85,29.67,7.0,SW,16.1,24.2,N/A,Rain,Light Rain,220,2012-10-09 21:35:00
5:55 PM,50.5,46.8,87,29.68,5.0,SW,19.6,26.5,N/A,Rain,Light Rain,230,2012-10-09 21:55:00
6:15 PM,49.6,45.5,86,29.68,7.0,SW,19.6,29.9,N/A,Rain,Light Rain,230,2012-10-09 22:15:00
6:35 PM,49.3,44.8,84,29.68,5.0,SW,19.6,34.5,N/A,Rain,Light Rain,220,2012-10-09 22:35:00
6:55 PM,49.6,45.5,86,29.68,7.0,SW,21.9,28.8,N/A,Rain,Light Rain,230,2012-10-09 22:55:00
7:15 PM,49.5,45.0,84,29.68,10.0,SW,17.3,27.6,N/A,Rain,Rain,230,2012-10-09 23:15:00
7:35 PM,49.5,44.6,83,29.68,10.0,SW,17.3,33.4,N/A,Rain,Light Rain,220,2012-10-09 23:35:00
7:55 PM,47.7,42.4,82,29.69,7.0,West,23.0,32.2,N/A,Rain,Rain,260,2012-10-09 23:55:00
8:15 PM,46.8,42.8,86,29.70,10.0,West,17.3,26.5,N/A,,Drizzle,260,2012-10-10 00:15:00
8:35 PM,46.4,42.1,85,29.71,10.0,West,13.8,26.5,N/A,,Drizzle,270,2012-10-10 00:35:00
8:55 PM,45.7,41.5,85,29.72,10.0,West,16.1,24.2,N/A,Rain,Light Rain,260,2012-10-10 00:55:00
9:15 PM,45.0,41.2,87,29.72,10.0,West,15.0,20.7,N/A,Rain,Light Rain,260,2012-10-10 01:15:00
9:35 PM,44.6,40.1,84,29.72,10.0,West,10.4,16.1,N/A,Rain,Rain,260,2012-10-10 01:35:00
9:55 PM,44.2,39.2,82,29.72,10.0,West,11.5,19.6,N/A,,Overcast,270,2012-10-10 01:55:00
10:16 PM,44.2,37.4,77,29.73,10.0,West,15.0,21.9,N/A,,Overcast,270,2012-10-10 02:16:00
10:35 PM,44.4,37.8,77,29.73,10.0,West,13.8,20.7,N/A,,Overcast,270,2012-10-10 02:35:00
10:55 PM,45.5,38.1,75,29.73,10.0,West,13.8,20.7,N/A,,Overcast,260,2012-10-10 02:55:00
11:15 PM,45.5,37.0,72,29.72,10.0,West,12.7,18.4,N/A,,Overcast,270,2012-10-10 03:15:00
11:35 PM,45.5,36.7,71,29.72,10.0,West,13.8,20.7,N/A,,Overcast,260,2012-10-10 03:35:00
11:55 PM,45.5,36.5,71,29.73,10.0,West,11.5,21.9,N/A,,Overcast,260,2012-10-10 03:55:00